TimeCST,TemperatureF,Dew PointF,Humidity,Sea Level PressureIn,VisibilityMPH,Wind Direction,Wind SpeedMPH,Gust SpeedMPH,PrecipitationIn,Events,Conditions,WindDirDegrees,DateUTC
12:53 AM,62.1,61.0,96,29.95,8.0,Calm,Calm,-,N/A,,Clear,0,2012-12-07 06:53:00
1:36 AM,59.0,57.2,94,29.95,1.8,Calm,Calm,-,N/A,,Partly Cloudy,0,2012-12-07 07:36:00
1:47 AM,59.0,57.2,94,29.95,3.0,Calm,Calm,-,N/A,,Scattered Clouds,0,2012-12-07 07:47:00
1:53 AM,59.0,59.0,100,29.95,4.0,Calm,Calm,-,N/A,,Scattered Clouds,0,2012-12-07 07:53:00
2:23 AM,59.0,57.2,94,29.95,1.8,Calm,Calm,-,N/A,,Scattered Clouds,0,2012-12-07 08:23:00
2:26 AM,57.2,57.2,100,29.94,0.8,Calm,Calm,-,N/A,,Mist,0,2012-12-07 08:26:00
2:53 AM,57.9,57.9,100,29.93,1.0,Calm,Calm,-,N/A,,Mist,0,2012-12-07 08:53:00
3:02 AM,57.2,57.2,100,29.93,3.0,Calm,Calm,-,N/A,,Mostly Cloudy,0,2012-12-07 09:02:00
3:10 AM,57.2,57.2,100,29.93,5.0,Calm,Calm,-,N/A,,Partly Cloudy,0,2012-12-07 09:10:00
3:32 AM,57.2,57.2,100,29.94,1.5,Calm,Calm,-,N/A,,Partly Cloudy,0,2012-12-07 09:32:00
3:36 AM,57.2,57.2,100,29.94,0.8,Calm,Calm,-,N/A,,Mist,0,2012-12-07 09:36:00
3:45 AM,57.2,57.2,100,29.94,1.2,Calm,Calm,-,N/A,,Scattered Clouds,0,2012-12-07 09:45:00
3:53 AM,57.9,57.9,100,29.93,4.0,Calm,Calm,-,N/A,,Scattered Clouds,0,2012-12-07 09:53:00
3:57 AM,57.2,57.2,100,29.93,5.0,East,3.5,-,0.01,,Mostly Cloudy,80,2012-12-07 09:57:00
4:12 AM,57.2,57.2,100,29.93,3.0,Calm,Calm,-,0.01,,Mostly Cloudy,0,2012-12-07 10:12:00
4:26 AM,59.0,57.2,94,29.94,2.0,Calm,Calm,-,0.01,,Overcast,0,2012-12-07 10:26:00
4:33 AM,57.2,57.2,100,29.94,0.8,Calm,Calm,-,0.01,,Overcast,0,2012-12-07 10:33:00
4:41 AM,59.0,57.2,94,29.94,2.0,Calm,Calm,-,0.01,,Overcast,0,2012-12-07 10:41:00
4:53 AM,57.9,57.9,100,29.94,1.8,Calm,Calm,-,0.01,,Mostly Cloudy,0,2012-12-07 10:53:00
4:58 AM,57.2,57.2,100,29.94,2.0,Calm,Calm,-,N/A,,Scattered Clouds,0,2012-12-07 10:58:00
5:19 AM,57.2,57.2,100,29.94,1.0,Calm,Calm,-,N/A,,Scattered Clouds,0,2012-12-07 11:19:00
5:25 AM,57.2,57.2,100,29.94,2.0,Calm,Calm,-,N/A,,Mostly Cloudy,0,2012-12-07 11:25:00
5:33 AM,59.0,57.2,94,29.95,5.0,East,4.6,-,N/A,,Mostly Cloudy,80,2012-12-07 11:33:00
5:53 AM,59.0,59.0,100,29.95,1.5,ENE,3.5,-,N/A,,Overcast,60,2012-12-07 11:53:00
6:03 AM,59.0,59.0,100,29.96,0.5,ENE,3.5,-,N/A,Fog,Fog,70,2012-12-07 12:03:00
6:04 AM,59.0,59.0,100,29.96,1.5,Calm,Calm,-,N/A,,Overcast,0,2012-12-07 12:04:00
6:53 AM,59.0,59.0,100,29.97,0.8,ENE,4.6,-,N/A,,Overcast,70,2012-12-07 12:53:00
7:53 AM,60.1,60.1,100,29.97,0.8,ENE,3.5,-,N/A,,Overcast,60,2012-12-07 13:53:00
8:53 AM,62.1,62.1,100,29.98,0.8,ENE,3.5,-,N/A,,Overcast,70,2012-12-07 14:53:00
9:20 AM,62.6,62.6,100,29.99,2.5,NE,3.5,-,N/A,,Overcast,40,2012-12-07 15:20:00
9:53 AM,64.9,63.0,93,29.99,5.0,ENE,3.5,-,N/A,,Overcast,60,2012-12-07 15:53:00
10:03 AM,66.2,64.4,94,29.98,6.0,ENE,4.6,-,N/A,,Overcast,70,2012-12-07 16:03:00
10:30 AM,68.0,64.4,88,29.97,10.0,ESE,5.8,-,N/A,,Mostly Cloudy,110,2012-12-07 16:30:00
10:53 AM,69.1,64.0,84,29.97,10.0,SE,8.1,-,N/A,,Mostly Cloudy,130,2012-12-07 16:53:00
11:53 AM,71.1,64.9,81,29.95,10.0,SE,9.2,-,N/A,,Mostly Cloudy,140,2012-12-07 17:53:00
12:53 PM,71.1,64.9,81,29.93,10.0,ESE,10.4,-,N/A,,Mostly Cloudy,110,2012-12-07 18:53:00
1:26 PM,71.6,64.4,78,29.91,10.0,SE,10.4,-,N/A,,Mostly Cloudy,130,2012-12-07 19:26:00
1:53 PM,71.1,64.9,81,29.91,10.0,SE,9.2,-,N/A,,Scattered Clouds,140,2012-12-07 19:53:00
2:53 PM,71.1,64.9,81,29.90,10.0,SE,8.1,-,N/A,,Overcast,130,2012-12-07 20:53:00
3:53 PM,69.1,64.0,84,29.90,10.0,ESE,9.2,-,N/A,,Scattered Clouds,120,2012-12-07 21:53:00
4:53 PM,68.0,64.0,87,29.91,10.0,ESE,11.5,-,N/A,,Overcast,110,2012-12-07 22:53:00
5:53 PM,68.0,64.9,90,29.91,10.0,East,9.2,-,N/A,,Overcast,100,2012-12-07 23:53:00
6:53 PM,68.0,64.4,88,29.92,10.0,East,9.2,-,N/A,,Mostly Cloudy,100,2012-12-08 00:53:00
7:53 PM,68.0,64.9,90,29.94,10.0,East,4.6,-,N/A,,Mostly Cloudy,90,2012-12-08 01:53:00
8:33 PM,66.2,64.4,94,29.94,10.0,East,4.6,-,N/A,,Overcast,80,2012-12-08 02:33:00
8:43 PM,66.2,64.4,94,29.94,10.0,East,3.5,-,N/A,,Overcast,80,2012-12-08 02:43:00
8:53 PM,66.9,64.9,93,29.94,10.0,East,3.5,-,N/A,,Overcast,90,2012-12-08 02:53:00
9:18 PM,66.2,64.4,94,29.94,9.0,Calm,Calm,-,N/A,,Overcast,0,2012-12-08 03:18:00
9:21 PM,66.2,64.4,94,29.94,9.0,Calm,Calm,-,N/A,,Overcast,0,2012-12-08 03:21:00
9:53 PM,66.0,64.0,93,29.94,8.0,ENE,4.6,-,N/A,,Overcast,70,2012-12-08 03:53:00
10:39 PM,66.2,64.4,94,29.94,8.0,East,6.9,-,N/A,,Overcast,90,2012-12-08 04:39:00
10:53 PM,66.0,64.0,93,29.94,7.0,East,3.5,-,N/A,,Overcast,90,2012-12-08 04:53:00
11:09 PM,64.4,64.4,100,29.94,7.0,Calm,Calm,-,N/A,,Mostly Cloudy,0,2012-12-08 05:09:00
11:16 PM,64.4,64.4,100,29.94,7.0,Calm,Calm,-,N/A,,Mostly Cloudy,0,2012-12-08 05:16:00
11:53 PM,66.0,64.9,96,29.93,6.0,Calm,Calm,-,N/A,,Overcast,0,2012-12-08 05:53:00